Regional Weather Roundup
Issued by NWS

Home | Current Version | Previous Version | Graphics & Text | Print | Product List | Glossary On
Versions: 1 2 3 4 5 6 7 8 9 10 11 12 13 14 15 16 17 18 19 20 21 22 23 24 25 26 27
000
ASUS45 KCYS 300710
RWRWY

WYOMING REGIONAL WEATHER ROUNDUP
NATIONAL WEATHER SERVICE CHEYENNE WY
100 AM MDT THU MAR 30 2017

NOTE:  "FAIR" INDICATES FEW OR NO CLOUDS BELOW 12,000 FEET
WITH NO SIGNIFICANT WEATHER AND/OR OBSTRUCTIONS TO VISIBILITY.

WYZ001-300800-
YELLOWSTONE NATIONAL PARK

CITY           SKY/WX    TMP DP  RH WIND       PRES   REMARKS
LK YELLOWSTONE   N/A     31  31 100 CALM      29.96F
W YELLOWSTONE  NOT AVBL

$$
WYZ002>013-054>058-071-098>099-300800-
NORTHERN WYOMING

CITY           SKY/WX    TMP DP  RH WIND       PRES   REMARKS
JACKSON        CLOUDY    37  36  93 W5        29.97F WCI  34
CODY           FAIR      48  31  51 W9        29.85F
GREYBULL       MOCLDY    46  33  60 SE6       29.82F
WORLAND        FAIR      43  37  79 SE5       29.83F
SHERIDAN       CLOUDY    44  37  76 CALM      29.80F
BUFFALO        FAIR      46  29  51 SW5       29.83F
GILLETTE       FAIR      43  37  79 S17       29.83F
HULETT         CLOUDY    43  34  70 SW7       29.86F
NEWCASTLE      FAIR      39  34  81 SE12G23   29.90S WCI  32

$$
WYZ014>020-022>026-101>103-300800-
CENTRAL WYOMING

CITY           SKY/WX    TMP DP  RH WIND       PRES   REMARKS
BIG PINEY      CLOUDY    37  32  82 SE5       30.01F WCI  33
PINEDALE       CLOUDY    36  32  87 CALM      30.01F
DUBOIS         CLOUDY    37  30  75 N7        29.94F WCI  32
LANDER         CLOUDY    45  34  65 E6        29.88F
RIVERTON       CLOUDY    49  32  52 NW20      29.87F
CASPER         FAIR      40  30  67 SW9       29.85F WCI  34
DOUGLAS        FAIR      40  34  79 SE12      29.86F WCI  33

$$
WYZ021-027>030-104>119-300800-
SOUTHERN WYOMING

CITY           SKY/WX    TMP DP  RH WIND       PRES   REMARKS
EVANSTON       CLOUDY    39  27  62 SW10      30.03F WCI  32
KEMMERER         N/A     36  30  80 CALM      30.03F
FORT BRIDGER   FAIR      40  30  67 SW9       30.06F WCI  34
ROCK SPRINGS   FAIR      41  30  65 SW12      30.02S
DIXON            N/A     33  28  80 CALM      30.06S
RAWLINS        FAIR      38  28  67 W15       29.97S WCI  29
SARATOGA       FAIR      34  28  80 CALM      30.00S
LARAMIE        FAIR      31  24  75 SW8       29.93F WCI  23
CHEYENNE       FAIR      35  33  92 SW14      29.92F WCI  26
TORRINGTON     FAIR      37  35  92 SE7       29.90F WCI  32
PINE BLUFFS    FAIR      34  32  93 SW8       29.94F WCI  27

$$




USA.gov is the U.S. government's official web portal to all federal, state and local government web resources and services.